| time (UTC) | temp F | wind direction | speed MPH | gust MPH | rain 1hr in | rain 24hr in | rain mn in | humidity % | barometer mb |
| 20260902073446 | 82 | 157 | 1.0 | 1.0 | 0.00 | 0.00 | 0.00 | 74 | 1016.0 |
| 20260902072942 | 82 | 186 | 0.0 | 0.0 | 0.00 | 0.00 | 0.00 | 74 | 1015.7 |
| 20260902072437 | 82 | 191 | 2.0 | 2.0 | 0.00 | 0.00 | 0.00 | 74 | 1015.6 |
| 20260902071934 | 82 | 147 | 1.0 | 1.0 | 0.00 | 0.00 | 0.00 | 74 | 1015.8 |
| 20260902071433 | 82 | 164 | 1.0 | 1.0 | 0.00 | 0.00 | 0.00 | 75 | 1015.9 |
| 20260902070930 | 82 | 190 | 3.0 | 3.0 | 0.00 | 0.00 | 0.00 | 75 | 1015.7 |
| 20260902070425 | 82 | 170 | 1.0 | 1.0 | 0.00 | 0.00 | 0.00 | 75 | 1015.8 |
| 20260902065924 | 82 | 199 | 1.0 | 2.0 | 0.00 | 0.00 | 0.00 | 76 | 1015.9 |
| 20260902065419 | 82 | 148 | 2.0 | 2.0 | 0.00 | 0.00 | 0.00 | 76 | 1016.1 |
| 20260902064914 | 82 | 160 | 0.0 | 1.0 | 0.00 | 0.00 | 0.00 | 76 | 1016.1 |
| 20260902064410 | 82 | 179 | 0.0 | 1.0 | 0.00 | 0.00 | 0.00 | 76 | 1016.1 |
| 20260902063905 | 82 | 225 | 3.0 | 3.0 | 0.00 | 0.00 | 0.00 | 76 | 1015.9 |
| 20260902063405 | 82 | 210 | 1.0 | 2.0 | 0.00 | 0.00 | 0.00 | 77 | 1015.8 |
| 20260902062900 | 82 | 167 | 2.0 | 2.0 | 0.00 | 0.00 | 0.00 | 77 | 1016.0 |
| 20260902062359 | 82 | 166 | 0.0 | 1.0 | 0.00 | 0.00 | 0.00 | 77 | 1016.1 |
| 20260902061859 | 82 | 187 | 1.0 | 1.0 | 0.00 | 0.00 | 0.00 | 77 | 1015.9 |
| 20260902061354 | 81 | 241 | 0.0 | 0.0 | 0.00 | 0.00 | 0.00 | 78 | 1016.0 |
| 20260902060850 | 81 | 165 | 0.0 | 1.0 | 0.00 | 0.00 | 0.00 | 78 | 1016.0 |
| 20260902060346 | 81 | 207 | 0.0 | 0.0 | 0.00 | 0.00 | 0.00 | 78 | 1015.8 |
| 20260902055842 | 82 | 161 | 0.0 | 0.0 | 0.00 | 0.00 | 0.00 | 78 | 1015.7 |
| 20260902055337 | 82 | 184 | 0.0 | 0.0 | 0.00 | 0.00 | 0.00 | 76 | 1015.7 |
| 20260902054833 | 83 | 173 | 0.0 | 0.0 | 0.00 | 0.00 | 0.00 | 75 | 1015.6 |
| 20260902054328 | 83 | 165 | 1.0 | 2.0 | 0.00 | 0.00 | 0.00 | 74 | 1015.7 |
| 20260902053824 | 83 | 250 | 2.0 | 3.0 | 0.00 | 0.00 | 0.00 | 74 | 1015.8 |
| 20260902053319 | 83 | 150 | 2.0 | 2.0 | 0.00 | 0.00 | 0.00 | 74 | 1015.7 |
| 20260902052817 | 83 | 157 | 2.0 | 2.0 | 0.00 | 0.00 | 0.00 | 74 | 1015.7 |
| 20260902052313 | 83 | 183 | 1.0 | 2.0 | 0.00 | 0.00 | 0.00 | 75 | 1015.8 |
| 20260902051808 | 83 | 180 | 1.0 | 2.0 | 0.00 | 0.00 | 0.00 | 74 | 1015.7 |
| 20260902051302 | 83 | 178 | 3.0 | 4.0 | 0.00 | 0.00 | 0.00 | 75 | 1015.9 |
| 20260902050757 | 84 | 159 | 1.0 | 1.0 | 0.00 | 0.00 | 0.00 | 74 | 1015.7 |
| 20260902050257 | 84 | 162 | 1.0 | 2.0 | 0.00 | 0.00 | 0.00 | 74 | 1015.9 |
| 20260902045757 | 84 | 181 | 1.0 | 2.0 | 0.00 | 0.00 | 0.00 | 74 | 1015.9 |
| 20260902045253 | 84 | 183 | 2.0 | 2.0 | 0.00 | 0.00 | 0.00 | 74 | 1015.8 |
| 20260902044749 | 84 | 157 | 1.0 | 2.0 | 0.00 | 0.00 | 0.00 | 74 | 1015.8 |
| 20260902044244 | 84 | 209 | 2.0 | 2.0 | 0.00 | 0.00 | 0.00 | 74 | 1015.8 |
| 20260902043738 | 84 | 179 | 3.0 | 6.0 | 0.00 | 0.00 | 0.00 | 73 | 1015.8 |
| 20260902043234 | 84 | 180 | 4.0 | 6.0 | 0.00 | 0.00 | 0.00 | 74 | 1015.6 |
| 20260902042733 | 84 | 216 | 1.0 | 1.0 | 0.00 | 0.00 | 0.00 | 74 | 1015.7 |
| 20260902042228 | 84 | 179 | 2.0 | 2.0 | 0.00 | 0.00 | 0.00 | 74 | 1015.8 |
| 20260902041724 | 84 | 167 | 1.0 | 1.0 | 0.00 | 0.00 | 0.00 | 74 | 1015.9 |
| 20260902041218 | 84 | 166 | 1.0 | 2.0 | 0.00 | 0.00 | 0.00 | 73 | 1015.9 |
| 20260902040718 | 84 | 214 | 2.0 | 3.0 | 0.00 | 0.00 | 0.00 | 73 | 1016.0 |
| 20260902040213 | 84 | 185 | 1.0 | 2.0 | 0.00 | 0.00 | 0.00 | 73 | 1015.8 |
| 20260902035712 | 84 | 216 | 2.0 | 2.0 | 0.00 | 0.00 | 0.00 | 73 | 1016.0 |
| 20260902035208 | 85 | 145 | 2.0 | 2.0 | 0.00 | 0.00 | 0.00 | 72 | 1016.1 |
| 20260902034706 | 85 | 153 | 0.0 | 0.0 | 0.00 | 0.00 | 0.00 | 71 | 1016.0 |
| 20260902034206 | 85 | 149 | 1.0 | 2.0 | 0.00 | 0.00 | 0.00 | 71 | 1016.1 |
| 20260902033705 | 85 | 162 | 3.0 | 4.0 | 0.00 | 0.00 | 0.00 | 71 | 1015.9 |
| 20260902033200 | 86 | 159 | 1.0 | 1.0 | 0.00 | 0.00 | 0.00 | 71 | 1015.9 |
| 20260902032659 | 86 | 190 | 2.0 | 2.0 | 0.00 | 0.00 | 0.00 | 70 | 1016.2 |
| 20260902032154 | 86 | 193 | 5.0 | 7.0 | 0.00 | 0.00 | 0.00 | 70 | 1016.0 |
| 20260902031648 | 86 | 172 | 1.0 | 1.0 | 0.00 | 0.00 | 0.00 | 70 | 1016.1 |
| 20260902031144 | 86 | 142 | 0.0 | 0.0 | 0.00 | 0.00 | 0.00 | 70 | 1016.1 |
| 20260902030639 | 86 | 277 | 1.0 | 2.0 | 0.00 | 0.00 | 0.00 | 69 | 1016.2 |
| 20260902030138 | 86 | 167 | 3.0 | 3.0 | 0.00 | 0.00 | 0.00 | 69 | 1016.0 |
| 20260902025638 | 86 | 181 | 4.0 | 6.0 | 0.00 | 0.00 | 0.00 | 69 | 1016.1 |
| 20260902025134 | 87 | 212 | 3.0 | 3.0 | 0.00 | 0.00 | 0.00 | 68 | 1016.1 |
| 20260902024629 | 87 | 191 | 4.0 | 7.0 | 0.00 | 0.00 | 0.00 | 68 | 1015.9 |
| 20260902024130 | 87 | 167 | 2.0 | 3.0 | 0.00 | 0.00 | 0.00 | 68 | 1016.0 |
| 20260902023625 | 87 | 187 | 4.0 | 6.0 | 0.00 | 0.00 | 0.00 | 68 | 1015.9 |
| 20260902023120 | 87 | 207 | 3.0 | 4.0 | 0.00 | 0.00 | 0.00 | 68 | 1016.1 |
| 20260902022619 | 87 | 170 | 2.0 | 2.0 | 0.00 | 0.00 | 0.00 | 68 | 1015.9 |
| 20260902022116 | 87 | 187 | 0.0 | 1.0 | 0.00 | 0.00 | 0.00 | 68 | 1015.9 |
| 20260902021611 | 87 | 158 | 0.0 | 1.0 | 0.00 | 0.00 | 0.00 | 67 | 1016.0 |
| 20260902021106 | 87 | 172 | 4.0 | 4.0 | 0.00 | 0.00 | 0.00 | 67 | 1016.0 |
| 20260902020601 | 87 | 172 | 3.0 | 3.0 | 0.00 | 0.00 | 0.00 | 67 | 1015.8 |
| 20260902020057 | 87 | 185 | 2.0 | 2.0 | 0.00 | 0.00 | 0.00 | 67 | 1015.7 |
| 20260902015553 | 87 | 177 | 2.0 | 2.0 | 0.00 | 0.00 | 0.00 | 68 | 1015.7 |
| 20260902015048 | 87 | 171 | 0.0 | 1.0 | 0.00 | 0.00 | 0.00 | 67 | 1015.7 |
| 20260902014544 | 87 | 150 | 1.0 | 1.0 | 0.00 | 0.00 | 0.00 | 67 | 1015.7 |
| 20260902014039 | 88 | 157 | 0.0 | 0.0 | 0.00 | 0.00 | 0.00 | 66 | 1015.7 |
| 20260902013539 | 88 | 157 | 0.0 | 1.0 | 0.00 | 0.00 | 0.00 | 65 | 1015.7 |
| 20260902013035 | 88 | 154 | 1.0 | 2.0 | 0.00 | 0.00 | 0.00 | 65 | 1015.7 |
| 20260902012530 | 88 | 193 | 1.0 | 2.0 | 0.00 | 0.00 | 0.00 | 64 | 1015.6 |
| 20260902012025 | 89 | 176 | 3.0 | 4.0 | 0.00 | 0.00 | 0.00 | 64 | 1015.4 |
| 20260902011521 | 89 | 258 | 2.0 | 3.0 | 0.00 | 0.00 | 0.00 | 63 | 1015.2 |
| 20260902011021 | 89 | 178 | 2.0 | 2.0 | 0.00 | 0.00 | 0.00 | 63 | 1015.3 |
| 20260902010520 | 89 | 174 | 2.0 | 2.0 | 0.00 | 0.00 | 0.00 | 63 | 1015.1 |
| 20260902010016 | 89 | 229 | 1.0 | 1.0 | 0.00 | 0.00 | 0.00 | 63 | 1015.1 |
| 20260902005513 | 89 | 184 | 5.0 | 6.0 | 0.00 | 0.00 | 0.00 | 63 | 1015.1 |
| 20260902005010 | 90 | 180 | 2.0 | 3.0 | 0.00 | 0.00 | 0.00 | 63 | 1015.0 |
| 20260902004509 | 90 | 172 | 3.0 | 3.0 | 0.00 | 0.00 | 0.00 | 63 | 1014.9 |
| 20260902004005 | 90 | 202 | 1.0 | 3.0 | 0.00 | 0.00 | 0.00 | 63 | 1015.0 |
| 20260902003500 | 90 | 208 | 2.0 | 2.0 | 0.00 | 0.00 | 0.00 | 62 | 1015.0 |
| 20260902002955 | 90 | 202 | 1.0 | 1.0 | 0.00 | 0.00 | 0.00 | 63 | 1014.9 |
| 20260902002450 | 91 | 176 | 1.0 | 1.0 | 0.00 | 0.00 | 0.00 | 63 | 1014.9 |
| 20260902001950 | 91 | 206 | 3.0 | 3.0 | 0.00 | 0.00 | 0.00 | 63 | 1015.0 |
| 20260902001444 | 91 | 162 | 2.0 | 2.0 | 0.00 | 0.00 | 0.00 | 63 | 1014.9 |
| 20260902000940 | 91 | 223 | 2.0 | 3.0 | 0.00 | 0.00 | 0.00 | 63 | 1015.1 |
| 20260902000436 | 91 | 160 | 1.0 | 1.0 | 0.00 | 0.00 | 0.00 | 63 | 1015.0 |
| 20260901235930 | 91 | 143 | 4.0 | 6.0 | 0.00 | 0.00 | 0.00 | 63 | 1015.1 |
| 20260901235425 | 91 | 163 | 2.0 | 3.0 | 0.00 | 0.00 | 0.00 | 63 | 1015.3 |
| 20260901234920 | 92 | 189 | 0.0 | 1.0 | 0.00 | 0.00 | 0.00 | 63 | 1015.4 |
| 20260901234414 | 92 | 187 | 1.0 | 3.0 | 0.00 | 0.00 | 0.00 | 62 | 1015.0 |
| 20260901233909 | 92 | 172 | 2.0 | 3.0 | 0.00 | 0.00 | 0.00 | 62 | 1015.0 |
| 20260901233404 | 92 | 182 | 2.0 | 2.0 | 0.00 | 0.00 | 0.00 | 63 | 1015.2 |
| 20260901232900 | 92 | 201 | 4.0 | 6.0 | 0.00 | 0.00 | 0.00 | 63 | 1015.3 |
| 20260901232354 | 92 | 176 | 4.0 | 4.0 | 0.00 | 0.00 | 0.00 | 62 | 1015.4 |
| 20260901231850 | 93 | 193 | 2.0 | 3.0 | 0.00 | 0.00 | 0.00 | 61 | 1015.2 |
| 20260901231346 | 93 | 192 | 3.0 | 3.0 | 0.00 | 0.00 | 0.00 | 61 | 1015.2 |
| 20260901230843 | 93 | 226 | 3.0 | 4.0 | 0.00 | 0.00 | 0.00 | 61 | 1015.2 |
| 20260901230342 | 93 | 169 | 4.0 | 7.0 | 0.00 | 0.00 | 0.00 | 61 | 1015.2 |
| 20260901225838 | 93 | 155 | 3.0 | 3.0 | 0.00 | 0.00 | 0.00 | 61 | 1015.3 |
| 20260901225336 | 93 | 202 | 3.0 | 3.0 | 0.00 | 0.00 | 0.00 | 61 | 1015.3 |
| 20260901224832 | 93 | 188 | 3.0 | 3.0 | 0.00 | 0.00 | 0.00 | 61 | 1015.3 |
| 20260901224328 | 93 | 232 | 3.0 | 3.0 | 0.00 | 0.00 | 0.00 | 60 | 1015.4 |
| 20260901223824 | 93 | 164 | 3.0 | 6.0 | 0.00 | 0.00 | 0.00 | 60 | 1015.4 |
| 20260901223319 | 94 | 188 | 1.0 | 2.0 | 0.00 | 0.00 | 0.00 | 59 | 1015.4 |
| 20260901222815 | 93 | 207 | 0.0 | 1.0 | 0.00 | 0.00 | 0.00 | 59 | 1015.4 |
| 20260901222312 | 94 | 174 | 5.0 | 7.0 | 0.00 | 0.00 | 0.00 | 58 | 1015.2 |
| 20260901221808 | 94 | 204 | 2.0 | 3.0 | 0.00 | 0.00 | 0.00 | 59 | 1015.4 |
| 20260901221303 | 94 | 198 | 3.0 | 4.0 | 0.00 | 0.00 | 0.00 | 59 | 1015.2 |
| 20260901220802 | 94 | 201 | 2.0 | 2.0 | 0.00 | 0.00 | 0.00 | 59 | 1015.2 |
| 20260901220301 | 94 | 180 | 5.0 | 6.0 | 0.00 | 0.00 | 0.00 | 59 | 1015.3 |
| 20260901215800 | 94 | 166 | 4.0 | 6.0 | 0.00 | 0.00 | 0.00 | 59 | 1015.2 |
| 20260901215300 | 94 | 206 | 2.0 | 3.0 | 0.00 | 0.00 | 0.00 | 58 | 1015.2 |
| 20260901214758 | 95 | 155 | 2.0 | 3.0 | 0.00 | 0.00 | 0.00 | 59 | 1015.2 |
| 20260901214257 | 95 | 191 | 4.0 | 4.0 | 0.00 | 0.00 | 0.00 | 58 | 1015.3 |
| 20260901213753 | 96 | 170 | 3.0 | 3.0 | 0.00 | 0.00 | 0.00 | 57 | 1015.1 |
| 20260901213252 | 96 | 225 | 5.0 | 7.0 | 0.00 | 0.00 | 0.00 | 56 | 1015.3 |
| 20260901212752 | 96 | 162 | 3.0 | 4.0 | 0.00 | 0.00 | 0.00 | 57 | 1015.3 |
| 20260901212248 | 96 | 228 | 2.0 | 2.0 | 0.00 | 0.00 | 0.00 | 58 | 1015.1 |
| 20260901211742 | 95 | 160 | 5.0 | 7.0 | 0.00 | 0.00 | 0.00 | 58 | 1015.3 |
| 20260901211239 | 96 | 188 | 4.0 | 7.0 | 0.00 | 0.00 | 0.00 | 57 | 1015.3 |
| 20260901210735 | 96 | 228 | 3.0 | 6.0 | 0.00 | 0.00 | 0.00 | 57 | 1015.4 |
| 20260901210230 | 95 | 218 | 2.0 | 2.0 | 0.00 | 0.00 | 0.00 | 58 | 1015.2 |
| 20260901205727 | 96 | 135 | 4.0 | 6.0 | 0.00 | 0.00 | 0.00 | 58 | 1015.4 |
| 20260901205226 | 96 | 188 | 2.0 | 2.0 | 0.00 | 0.00 | 0.00 | 57 | 1015.3 |
| 20260901204722 | 96 | 208 | 2.0 | 3.0 | 0.00 | 0.00 | 0.00 | 57 | 1015.2 |
| 20260901204217 | 96 | 295 | 1.0 | 2.0 | 0.00 | 0.00 | 0.00 | 58 | 1015.4 |
| 20260901203712 | 96 | 177 | 3.0 | 4.0 | 0.00 | 0.00 | 0.00 | 59 | 1015.6 |
| 20260901203207 | 96 | 335 | 1.0 | 2.0 | 0.00 | 0.00 | 0.00 | 58 | 1015.5 |
| 20260901202707 | 96 | 228 | 4.0 | 6.0 | 0.00 | 0.00 | 0.00 | 58 | 1015.4 |
| 20260901202202 | 96 | 185 | 2.0 | 3.0 | 0.00 | 0.00 | 0.00 | 59 | 1015.3 |
| 20260901201658 | 96 | 250 | 2.0 | 2.0 | 0.00 | 0.00 | 0.00 | 58 | 1015.5 |
| 20260901201157 | 95 | 227 | 2.0 | 2.0 | 0.00 | 0.00 | 0.00 | 59 | 1015.6 |
| 20260901200657 | 95 | 166 | 6.0 | 8.0 | 0.00 | 0.00 | 0.00 | 60 | 1015.4 |
| 20260901200152 | 95 | 149 | 4.0 | 4.0 | 0.00 | 0.00 | 0.00 | 60 | 1015.6 |
| 20260901195649 | 97 | 230 | 4.0 | 7.0 | 0.00 | 0.00 | 0.00 | 58 | 1015.9 |
| 20260901195144 | 96 | 184 | 1.0 | 1.0 | 0.00 | 0.00 | 0.00 | 56 | 1015.4 |
| 20260901194639 | 95 | 174 | 2.0 | 4.0 | 0.00 | 0.00 | 0.00 | 58 | 1015.7 |
| 20260901194135 | 95 | 164 | 2.0 | 4.0 | 0.00 | 0.00 | 0.00 | 59 | 1015.6 |
| 20260901193630 | 96 | 202 | 2.0 | 2.0 | 0.00 | 0.00 | 0.00 | 58 | 1015.8 |
| 20260901193124 | 95 | 216 | 2.0 | 2.0 | 0.00 | 0.00 | 0.00 | 59 | 1015.8 |
| 20260901192619 | 95 | 161 | 2.0 | 2.0 | 0.00 | 0.00 | 0.00 | 58 | 1015.7 |
| 20260901192114 | 95 | 178 | 1.0 | 2.0 | 0.00 | 0.00 | 0.00 | 61 | 1015.9 |
| 20260901191610 | 95 | 183 | 4.0 | 4.0 | 0.00 | 0.00 | 0.00 | 59 | 1015.9 |
| 20260901191107 | 95 | 165 | 3.0 | 4.0 | 0.00 | 0.00 | 0.00 | 60 | 1015.8 |
| 20260901190602 | 95 | 235 | 2.0 | 2.0 | 0.00 | 0.00 | 0.00 | 59 | 1015.7 |
| 20260901190101 | 95 | 183 | 4.0 | 4.0 | 0.00 | 0.00 | 0.00 | 60 | 1015.9 |
| 20260901185559 | 95 | 162 | 3.0 | 3.0 | 0.00 | 0.00 | 0.00 | 59 | 1015.9 |
| 20260901185058 | 94 | 241 | 2.0 | 3.0 | 0.00 | 0.00 | 0.00 | 59 | 1016.1 |
| 20260901184554 | 95 | 185 | 2.0 | 3.0 | 0.00 | 0.00 | 0.00 | 59 | 1015.9 |
| 20260901184050 | 95 | 146 | 3.0 | 3.0 | 0.00 | 0.00 | 0.00 | 60 | 1016.1 |
| 20260901183549 | 95 | 126 | 4.0 | 6.0 | 0.00 | 0.00 | 0.00 | 59 | 1016.0 |
| 20260901183045 | 96 | 17 | 1.0 | 2.0 | 0.00 | 0.00 | 0.00 | 59 | 1016.0 |
| 20260901182541 | 95 | 344 | 1.0 | 1.0 | 0.00 | 0.00 | 0.00 | 62 | 1015.9 |
| 20260901182041 | 95 | 308 | 2.0 | 3.0 | 0.00 | 0.00 | 0.00 | 62 | 1016.0 |
| 20260901181541 | 95 | 295 | 1.0 | 2.0 | 0.00 | 0.00 | 0.00 | 59 | 1016.1 |
| 20260901181040 | 95 | 202 | 1.0 | 1.0 | 0.00 | 0.00 | 0.00 | 58 | 1016.0 |
| 20260901180539 | 96 | 326 | 2.0 | 2.0 | 0.00 | 0.00 | 0.00 | 56 | 1016.1 |
| 20260901180035 | 95 | 284 | 2.0 | 3.0 | 0.00 | 0.00 | 0.00 | 55 | 1016.1 |
| 20260901175534 | 96 | 226 | 2.0 | 2.0 | 0.00 | 0.00 | 0.00 | 56 | 1016.2 |
| 20260901175028 | 95 | 282 | 2.0 | 3.0 | 0.00 | 0.00 | 0.00 | 61 | 1016.1 |
| 20260901174524 | 94 | 202 | 2.0 | 2.0 | 0.00 | 0.00 | 0.00 | 60 | 1016.1 |
| 20260901174021 | 95 | 337 | 2.0 | 3.0 | 0.00 | 0.00 | 0.00 | 61 | 1016.3 |
| 20260901173520 | 94 | 193 | 1.0 | 1.0 | 0.00 | 0.00 | 0.00 | 62 | 1016.3 |
| 20260901173016 | 94 | 183 | 3.0 | 4.0 | 0.00 | 0.00 | 0.00 | 62 | 1016.4 |
| 20260901172512 | 93 | 335 | 4.0 | 4.0 | 0.00 | 0.00 | 0.00 | 62 | 1016.3 |
| 20260901172009 | 93 | 146 | 3.0 | 6.0 | 0.00 | 0.00 | 0.00 | 64 | 1016.5 |
| 20260901171509 | 93 | 89 | 3.0 | 3.0 | 0.00 | 0.00 | 0.00 | 65 | 1016.5 |
| 20260901171008 | 93 | 292 | 6.0 | 8.0 | 0.00 | 0.00 | 0.00 | 65 | 1016.4 |
| 20260901170502 | 93 | 13 | 1.0 | 2.0 | 0.00 | 0.00 | 0.00 | 65 | 1016.5 |
| 20260901170002 | 92 | 186 | 2.0 | 4.0 | 0.00 | 0.00 | 0.00 | 64 | 1016.7 |
| 20260901165457 | 93 | 189 | 1.0 | 2.0 | 0.00 | 0.00 | 0.00 | 63 | 1016.8 |
| 20260901164953 | 93 | 56 | 0.0 | 0.0 | 0.00 | 0.00 | 0.00 | 65 | 1016.8 |
| 20260901164448 | 91 | 271 | 2.0 | 2.0 | 0.00 | 0.00 | 0.00 | 66 | 1016.8 |
| 20260901163943 | 92 | 169 | 3.0 | 3.0 | 0.00 | 0.00 | 0.00 | 66 | 1016.8 |
| 20260901163438 | 91 | 351 | 1.0 | 1.0 | 0.00 | 0.00 | 0.00 | 68 | 1016.8 |
| 20260901162937 | 91 | 262 | 2.0 | 2.0 | 0.00 | 0.00 | 0.00 | 67 | 1016.9 |
| 20260901162432 | 90 | 147 | 2.0 | 3.0 | 0.00 | 0.00 | 0.00 | 68 | 1016.8 |
| 20260901161931 | 91 | 155 | 1.0 | 2.0 | 0.00 | 0.00 | 0.00 | 67 | 1016.8 |
| 20260901161431 | 90 | 50 | 1.0 | 3.0 | 0.00 | 0.00 | 0.00 | 68 | 1016.8 |
| 20260901160926 | 90 | 237 | 0.0 | 2.0 | 0.00 | 0.00 | 0.00 | 70 | 1016.7 |
| 20260901160422 | 90 | 165 | 4.0 | 4.0 | 0.00 | 0.00 | 0.00 | 69 | 1016.4 |
| 20260901155921 | 89 | 26 | 2.0 | 2.0 | 0.00 | 0.00 | 0.00 | 71 | 1016.8 |
| 20260901155421 | 89 | 174 | 2.0 | 2.0 | 0.00 | 0.00 | 0.00 | 70 | 1016.5 |
| 20260901154918 | 89 | 248 | 0.0 | 0.0 | 0.00 | 0.00 | 0.00 | 71 | 1016.8 |
| 20260901154417 | 88 | 222 | 0.0 | 1.0 | 0.00 | 0.00 | 0.00 | 73 | 1016.9 |
| 20260901153912 | 87 | 146 | 2.0 | 2.0 | 0.00 | 0.00 | 0.00 | 73 | 1016.7 |
| 20260901153412 | 87 | 179 | 2.0 | 2.0 | 0.00 | 0.00 | 0.00 | 73 | 1016.7 |
| 20260901152906 | 89 | 198 | 1.0 | 1.0 | 0.00 | 0.00 | 0.00 | 72 | 1016.7 |
| 20260901152401 | 88 | 155 | 2.0 | 3.0 | 0.00 | 0.00 | 0.00 | 70 | 1016.7 |
| 20260901151855 | 87 | 208 | 1.0 | 1.0 | 0.00 | 0.00 | 0.00 | 73 | 1016.8 |
| 20260901151349 | 86 | 173 | 1.0 | 1.0 | 0.00 | 0.00 | 0.00 | 74 | 1016.5 |
| 20260901150849 | 86 | 183 | 4.0 | 4.0 | 0.00 | 0.00 | 0.00 | 75 | 1016.8 |
| 20260901150347 | 86 | 136 | 4.0 | 6.0 | 0.00 | 0.00 | 0.00 | 74 | 1016.4 |
| 20260901145844 | 86 | 257 | 0.0 | 1.0 | 0.00 | 0.00 | 0.00 | 74 | 1016.8 |
| 20260901145344 | 85 | 165 | 2.0 | 2.0 | 0.00 | 0.00 | 0.00 | 76 | 1016.8 |
| 20260901144839 | 85 | 177 | 2.0 | 2.0 | 0.00 | 0.00 | 0.00 | 77 | 1016.5 |
| 20260901144335 | 85 | 165 | 2.0 | 2.0 | 0.00 | 0.00 | 0.00 | 75 | 1016.8 |
| 20260901143831 | 86 | 212 | 2.0 | 2.0 | 0.00 | 0.00 | 0.00 | 75 | 1016.8 |
| 20260901143326 | 86 | 303 | 2.0 | 2.0 | 0.00 | 0.00 | 0.00 | 74 | 1016.8 |
| 20260901142823 | 85 | 182 | 3.0 | 3.0 | 0.00 | 0.00 | 0.00 | 76 | 1016.7 |
| 20260901142321 | 85 | 141 | 1.0 | 1.0 | 0.00 | 0.00 | 0.00 | 74 | 1016.7 |
| 20260901141817 | 84 | 184 | 1.0 | 1.0 | 0.00 | 0.00 | 0.00 | 77 | 1016.7 |
| 20260901141318 | 83 | 163 | 0.0 | 1.0 | 0.00 | 0.00 | 0.00 | 78 | 1016.7 |
| 20260901140816 | 82 | 188 | 1.0 | 2.0 | 0.00 | 0.00 | 0.00 | 78 | 1016.7 |
| 20260901140315 | 82 | 177 | 1.0 | 2.0 | 0.00 | 0.00 | 0.00 | 79 | 1016.7 |
| 20260901135810 | 82 | 128 | 0.0 | 0.0 | 0.00 | 0.00 | 0.00 | 80 | 1016.8 |
| 20260901135310 | 82 | 153 | 1.0 | 1.0 | 0.00 | 0.00 | 0.00 | 80 | 1016.8 |
| 20260901134807 | 81 | 176 | 2.0 | 2.0 | 0.00 | 0.00 | 0.00 | 81 | 1016.5 |
| 20260901134301 | 81 | 181 | 4.0 | 4.0 | 0.00 | 0.00 | 0.00 | 81 | 1016.5 |
| 20260901133801 | 81 | 177 | 2.0 | 3.0 | 0.00 | 0.00 | 0.00 | 81 | 1016.7 |
| 20260901133300 | 81 | 155 | 0.0 | 1.0 | 0.00 | 0.00 | 0.00 | 81 | 1017.0 |
| 20260901132758 | 81 | 222 | 2.0 | 3.0 | 0.00 | 0.00 | 0.00 | 82 | 1016.9 |
| 20260901132254 | 81 | 190 | 2.0 | 2.0 | 0.00 | 0.00 | 0.00 | 82 | 1017.0 |
| 20260901131748 | 80 | 185 | 2.0 | 2.0 | 0.00 | 0.00 | 0.00 | 83 | 1017.1 |
| 20260901131248 | 79 | 169 | 0.0 | 0.0 | 0.00 | 0.00 | 0.00 | 84 | 1017.0 |
| 20260901130743 | 79 | 146 | 3.0 | 4.0 | 0.00 | 0.00 | 0.00 | 85 | 1016.7 |
| 20260901130242 | 79 | 130 | 3.0 | 3.0 | 0.00 | 0.00 | 0.00 | 85 | 1016.9 |
| 20260901125740 | 79 | 176 | 1.0 | 1.0 | 0.00 | 0.00 | 0.00 | 85 | 1017.0 |
| 20260901125236 | 79 | 195 | 2.0 | 3.0 | 0.00 | 0.00 | 0.00 | 85 | 1016.7 |
| 20260901124736 | 79 | 194 | 1.0 | 1.0 | 0.00 | 0.00 | 0.00 | 86 | 1017.1 |
| 20260901124230 | 79 | 187 | 1.0 | 2.0 | 0.00 | 0.00 | 0.00 | 86 | 1016.9 |
| 20260901123730 | 78 | 255 | 1.0 | 2.0 | 0.00 | 0.00 | 0.00 | 86 | 1016.8 |
| 20260901123225 | 78 | 172 | 0.0 | 0.0 | 0.00 | 0.00 | 0.00 | 86 | 1016.8 |
| 20260901122724 | 78 | 217 | 1.0 | 1.0 | 0.00 | 0.00 | 0.00 | 86 | 1016.9 |
| 20260901122219 | 78 | 281 | 0.0 | 0.0 | 0.00 | 0.00 | 0.00 | 87 | 1016.8 |
| 20260901121713 | 78 | 200 | 0.0 | 0.0 | 0.00 | 0.00 | 0.00 | 87 | 1016.8 |
| 20260901121209 | 78 | 175 | 2.0 | 2.0 | 0.00 | 0.00 | 0.00 | 87 | 1016.7 |
| 20260901120708 | 78 | 163 | 0.0 | 0.0 | 0.00 | 0.00 | 0.00 | 87 | 1016.5 |
| 20260901120203 | 78 | 164 | 0.0 | 0.0 | 0.00 | 0.00 | 0.00 | 87 | 1016.5 |
| 20260901115658 | 77 | 169 | 0.0 | 0.0 | 0.00 | 0.00 | 0.00 | 88 | 1016.4 |
| 20260901115154 | 77 | 169 | 0.0 | 0.0 | 0.00 | 0.00 | 0.00 | 88 | 1016.3 |
| 20260901114651 | 77 | 155 | 0.0 | 0.0 | 0.00 | 0.00 | 0.00 | 88 | 1016.0 |
| 20260901114150 | 77 | 162 | 0.0 | 0.0 | 0.00 | 0.00 | 0.00 | 88 | 1016.3 |
| 20260901113649 | 77 | 173 | 0.0 | 0.0 | 0.00 | 0.00 | 0.00 | 88 | 1016.2 |
| 20260901113145 | 77 | 173 | 0.0 | 0.0 | 0.00 | 0.00 | 0.00 | 89 | 1016.1 |
| 20260901112638 | 77 | 179 | 0.0 | 0.0 | 0.00 | 0.00 | 0.00 | 88 | 1016.2 |
| 20260901112133 | 77 | 168 | 0.0 | 1.0 | 0.00 | 0.00 | 0.00 | 88 | 1016.2 |
| 20260901111632 | 77 | 152 | 0.0 | 0.0 | 0.00 | 0.00 | 0.00 | 89 | 1016.0 |
| 20260901111131 | 77 | 134 | 0.0 | 0.0 | 0.00 | 0.00 | 0.00 | 89 | 1016.0 |
| 20260901110627 | 76 | 165 | 0.0 | 0.0 | 0.00 | 0.00 | 0.00 | 89 | 1015.8 |
| 20260901110122 | 77 | 181 | 0.0 | 0.0 | 0.00 | 0.00 | 0.00 | 89 | 1015.8 |
| 20260901105619 | 77 | 73 | 0.0 | 0.0 | 0.00 | 0.00 | 0.00 | 88 | 1015.9 |
| 20260901105117 | 77 | 224 | 0.0 | 0.0 | 0.00 | 0.00 | 0.00 | 88 | 1015.9 |
| 20260901104614 | 77 | 124 | 0.0 | 0.0 | 0.00 | 0.00 | 0.00 | 87 | 1015.8 |
| 20260901104109 | 77 | 179 | 0.0 | 0.0 | 0.00 | 0.00 | 0.00 | 87 | 1015.8 |
| 20260901103603 | 77 | 163 | 1.0 | 1.0 | 0.00 | 0.00 | 0.00 | 87 | 1015.9 |
| 20260901103059 | 78 | 173 | 1.0 | 1.0 | 0.00 | 0.00 | 0.00 | 87 | 1015.7 |
| 20260901102558 | 78 | 161 | 1.0 | 1.0 | 0.00 | 0.00 | 0.00 | 87 | 1015.6 |
| 20260901102053 | 78 | 171 | 1.0 | 1.0 | 0.00 | 0.00 | 0.00 | 87 | 1015.9 |
| 20260901101549 | 78 | 163 | 0.0 | 0.0 | 0.00 | 0.00 | 0.00 | 87 | 1015.6 |
| 20260901101048 | 78 | 189 | 1.0 | 1.0 | 0.00 | 0.00 | 0.00 | 86 | 1015.8 |
| 20260901100548 | 78 | 179 | 0.0 | 0.0 | 0.00 | 0.00 | 0.00 | 86 | 1015.9 |
| 20260901100048 | 78 | 197 | 1.0 | 1.0 | 0.00 | 0.00 | 0.00 | 86 | 1015.7 |
| 20260901095546 | 78 | 179 | 2.0 | 2.0 | 0.00 | 0.00 | 0.00 | 86 | 1015.7 |
| 20260901095044 | 78 | 162 | 1.0 | 1.0 | 0.00 | 0.00 | 0.00 | 86 | 1015.5 |
| 20260901094539 | 78 | 155 | 0.0 | 0.0 | 0.00 | 0.00 | 0.00 | 86 | 1015.5 |
| 20260901094038 | 78 | 66 | 1.0 | 2.0 | 0.00 | 0.00 | 0.00 | 86 | 1015.7 |
| 20260901093533 | 78 | 193 | 0.0 | 1.0 | 0.00 | 0.00 | 0.00 | 85 | 1015.7 |
| 20260901093028 | 78 | 191 | 2.0 | 2.0 | 0.00 | 0.00 | 0.00 | 85 | 1015.7 |
| 20260901092524 | 78 | 239 | 0.0 | 0.0 | 0.00 | 0.00 | 0.00 | 86 | 1015.7 |
| 20260901092021 | 78 | 167 | 0.0 | 0.0 | 0.00 | 0.00 | 0.00 | 86 | 1015.5 |
| 20260901091516 | 78 | 225 | 0.0 | 0.0 | 0.00 | 0.00 | 0.00 | 86 | 1015.5 |
| 20260901091015 | 78 | 179 | 0.0 | 0.0 | 0.00 | 0.00 | 0.00 | 85 | 1015.3 |
| 20260901090515 | 78 | 281 | 0.0 | 0.0 | 0.00 | 0.00 | 0.00 | 85 | 1015.3 |
| 20260901090011 | 78 | 231 | 1.0 | 2.0 | 0.00 | 0.00 | 0.00 | 84 | 1015.5 |
| 20260901085506 | 79 | 126 | 2.0 | 2.0 | 0.00 | 0.00 | 0.00 | 84 | 1015.4 |
| 20260901085002 | 79 | 155 | 3.0 | 3.0 | 0.00 | 0.00 | 0.00 | 84 | 1015.3 |
| 20260901084458 | 79 | 172 | 1.0 | 1.0 | 0.00 | 0.00 | 0.00 | 84 | 1015.3 |
| 20260901083955 | 79 | 175 | 2.0 | 2.0 | 0.00 | 0.00 | 0.00 | 84 | 1015.3 |
| 20260901083454 | 79 | 235 | 0.0 | 1.0 | 0.00 | 0.00 | 0.00 | 83 | 1015.4 |
| 20260901082952 | 79 | 178 | 2.0 | 3.0 | 0.00 | 0.00 | 0.00 | 83 | 1015.3 |
| 20260901082447 | 79 | 180 | 1.0 | 1.0 | 0.00 | 0.00 | 0.00 | 83 | 1015.4 |
| 20260901081942 | 79 | 245 | 2.0 | 4.0 | 0.00 | 0.00 | 0.00 | 83 | 1015.1 |
| 20260901081437 | 79 | 196 | 1.0 | 2.0 | 0.00 | 0.00 | 0.00 | 83 | 1015.5 |
| 20260901080933 | 79 | 114 | 1.0 | 2.0 | 0.00 | 0.00 | 0.00 | 82 | 1015.0 |
| 20260901080432 | 79 | 215 | 3.0 | 3.0 | 0.00 | 0.00 | 0.00 | 82 | 1015.4 |
| 20260901075932 | 80 | 183 | 1.0 | 1.0 | 0.00 | 0.00 | 0.00 | 82 | 1015.4 |
| 20260901075427 | 80 | 235 | 3.0 | 3.0 | 0.00 | 0.00 | 0.00 | 82 | 1015.2 |
| 20260901074921 | 80 | 142 | 3.0 | 6.0 | 0.00 | 0.00 | 0.00 | 82 | 1015.3 |
| 20260901074416 | 80 | 189 | 1.0 | 2.0 | 0.00 | 0.00 | 0.00 | 81 | 1015.3 |
| 20260901073912 | 80 | 150 | 2.0 | 2.0 | 0.00 | 0.00 | 0.00 | 81 | 1015.3 |